Regional Weather Roundup
Issued by NWS Goodland, KS

Home | Current Version | Previous Version | Graphics & Text | Print | Product List | Glossary On
Versions: 1 2 3 4 5 6 7 8 9 10 11 12 13 14 15 16 17 18 19 20 21 22 23 24 25 26 27 28 29 30 31 32 33 34 35 36 37 38 39 40 41 42 43 44 45 46 47 48 49 50
000
ASUS43 KGLD 282108
RWRGLD

GOODLAND FORECAST AREA HOURLY WEATHER ROUNDUP
NATIONAL WEATHER SERVICE GOODLAND KS
200 PM MST FRI NOV 28 2014

...OFFICIAL OBSERVATIONS...

CITY           SKY/WX    TMP DP  RH WIND       PRES   REMARKS
GOODLAND KS    PTSUNNY   77  16  10 N10       29.78F
HILL CITY KS   SUNNY     79  21  11 SW10      29.73F
IMPERIAL NEB   PTSUNNY   72  11   9 W14G26    29.74F
MCCOOK NEB     MOSUNNY   78  17  10 W12       29.72F
AKRON CO       PTSUNNY   63  23  21 W9        29.82F
BURLINGTON CO  NOT AVBL
LIMON CO       MOSUNNY   68   2   7 CALM      29.87F
$$

...UNOFFICIAL OBSERVATIONS...

CITY           SKY/WX    TMP DP  RH WIND       PRES   REMARKS
COLBY KS       SUNNY     79  30  17 NW6       29.77F
NORTON KS      SUNNY     75   9   7 SW10      29.71F
SHARON SPRINGS   N/A     76  11   8 W10         N/A
TRIBUNE KS     SUNNY     77  36  22 W15G24    29.82F
TRENTON NEB      N/A     76  32  20 NW16        N/A
YUMA CO          N/A     69  18  14 W6          N/A
$$



USA.gov is the U.S. government's official web portal to all federal, state and local government web resources and services.